[[{"header":{"parameterUnit":"m.s-1","parameterCategory":1,"la1":30.2991,"la2":30.254,"lo1":-89.0895,"lo2":-89.0444,"dy":0.0017,"dx":0.0017,"nx":28,"ny":28,"refTime":"2024-04-30T21:00:00:Z","depth":0,"parameterNumber":2,"parameterNumberName":"U-component_of_WINDS"},"data":[0,0,0,0,0,0,0,0,0,0,0,0,0,0,0,0,0,0,0,0,0,0,0,0,0,0,0,0,0,0,0,0,0,0,0,0,0,0,0,0,0,0,0,0,0,0,0,0,0,0,0,0,0,0,0,0,0,0,-0.6731,-0.673,0,-0.6726,-0.6726,-0.6726,-0.669,-0.6689,-0.6688,-0.6687,-0.6683,-0.6684,-0.6685,0,0,0,0,0,0,0,0,0,0,0,0,0,-0.6709,-0.6709,-0.6731,-0.673,-0.673,-0.6726,-0.6726,-0.6726,-0.669,-0.6689,-0.6688,-0.6686,-0.6683,-0.6684,-0.6685,0,0,0,0,0,0,0,0,0,0,0,0,0,-0.6713,-0.671,-0.6731,-0.6712,-0.671,-0.6726,-0.6726,-0.6726,-0.669,-0.6689,-0.6687,-0.6686,-0.6683,-0.6684,-0.6685,-0.6719,0,0,-0.6688,-0.6689,0,0,0,0,0,0,0,0,-0.6712,-0.6714,-0.6715,-0.6713,-0.6711,-0.6707,-0.6717,-0.6724,-0.669,-0.6698,-0.6687,-0.6685,-0.6692,-0.6693,-0.6695,-0.6719,-0.6719,-0.6689,-0.6689,-0.669,-0.669,0,0,0,0,0,0,0,-0.6712,-0.6713,-0.6729,-0.6715,-0.6713,-0.6704,-0.6703,-0.6718,-0.6703,-0.6697,-0.6694,-0.6694,-0.6691,-0.6694,-0.6694,-0.6719,-0.6689,-0.669,-0.669,-0.6691,-0.677,-0.6771,0,0,0,0,0,0,-0.6714,-0.6714,-0.6729,-0.6729,-0.6709,-0.6705,-0.6704,-0.671,-0.6702,-0.67,-0.6695,-0.6692,-0.6693,-0.6693,-0.6694,-0.6733,-0.669,-0.6691,-0.6691,-0.6768,-0.677,-0.6772,0,0,0,0,0,0,-0.6714,-0.6716,-0.6729,-0.672,-0.6721,-0.6707,-0.6714,-0.671,-0.6713,-0.6701,-0.6698,-0.6701,-0.6692,-0.6693,-0.6713,-0.6732,-0.6691,-0.6692,-0.6767,-0.6769,-0.6771,-0.6811,0,0,0,0,0,0,-0.6714,-0.6716,-0.6729,-0.6721,-0.6722,-0.6748,-0.6715,-0.6711,-0.6715,-0.6711,-0.6705,-0.6703,-0.6691,-0.6711,-0.6714,-0.6733,-0.6693,-0.6765,-0.6768,-0.677,-0.6808,-0.6815,-0.682,0,0,0,0,0,-0.6713,-0.6741,-0.673,-0.6732,-0.6737,-0.6749,-0.675,-0.6734,-0.6716,-0.6729,-0.6721,-0.6703,-0.673,-0.6714,-0.6716,-0.6736,-0.6764,-0.6767,-0.677,-0.6806,-0.6813,-0.682,0,0,0,0,0,0,-0.6752,-0.6739,-0.6727,-0.6753,-0.6752,-0.6743,-0.6758,-0.6743,-0.6747,-0.6744,-0.6725,-0.6724,-0.6747,-0.6744,-0.6726,-0.6769,-0.6744,-0.6748,-0.677,-0.6777,-0.6783,-0.6783,-0.6694,0,0,0,0,0,-0.6764,-0.6774,-0.6762,-0.6786,-0.6787,-0.6773,-0.6777,-0.6765,-0.6764,-0.6763,-0.6757,-0.6757,-0.6765,-0.6771,-0.6778,-0.6808,-0.6806,-0.6823,-0.6829,-0.6833,-0.6837,-0.6852,-0.686,-0.6782,-0.6782,-0.6782,0,0,-0.6788,-0.6782,-0.679,-0.6794,-0.6792,-0.6803,-0.6773,-0.6786,-0.6794,-0.6765,-0.6784,-0.678,-0.6778,-0.6803,-0.6814,-0.6801,-0.6858,-0.6838,-0.6842,-0.6843,-0.6856,-0.6864,-0.687,-0.6784,-0.6784,-0.6784,0,0,-0.6837,-0.6834,-0.6853,-0.6852,-0.6849,-0.684,-0.6844,-0.6837,-0.6833,-0.6851,-0.683,-0.684,-0.6854,-0.6854,-0.6855,-0.6905,-0.6888,-0.6907,-0.6938,-0.6954,-0.696,-0.6965,-0.6982,-0.6989,-0.6911,-0.6911,-0.6911,0,-0.6868,-0.6883,-0.6866,-0.688,-0.6882,-0.6857,-0.6876,-0.6876,-0.6876,-0.6878,-0.6864,-0.6881,-0.6878,-0.6903,-0.6915,-0.6917,-0.6922,-0.6908,-0.696,-0.6965,-0.697,-0.6986,-0.6993,-0.6913,-0.6913,-0.6913,-0.6913,0,-0.6921,-0.6932,-0.6948,-0.6948,-0.6952,-0.6969,-0.6954,-0.6961,-0.6949,-0.6941,-0.6959,-0.6955,-0.696,-0.6965,-0.6954,-0.6988,-0.698,-0.6963,-0.6938,-0.698,-0.6995,-0.7001,-0.6917,-0.6916,-0.6915,-0.6915,0,0,-0.6995,-0.6984,-0.6991,-0.699,-0.6985,-0.6993,-0.7009,-0.7014,-0.702,-0.7021,-0.7034,-0.7046,-0.703,-0.7032,-0.702,-0.7034,-0.7073,-0.7015,-0.7015,-0.7026,-0.711,-0.7123,-0.713,-0.7062,-0.7063,-0.7064,-0.711,0,-0.7042,-0.7068,-0.7053,-0.7081,-0.7091,-0.7067,-0.7081,-0.7079,-0.7072,-0.708,-0.7072,-0.7081,-0.706,-0.7061,-0.7073,-0.7065,-0.7089,-0.7062,-0.7074,-0.7074,-0.7075,-0.7138,-0.7152,-0.7196,-0.7116,-0.7117,-0.7118,0,-0.7101,-0.7104,-0.7133,-0.7126,-0.7129,-0.7142,-0.7145,-0.7153,-0.715,-0.7144,-0.7146,-0.7131,-0.7146,-0.7121,-0.7142,-0.7124,-0.7127,-0.7125,-0.7126,-0.7126,-0.7098,-0.714,-0.721,-0.7216,-0.7127,-0.7126,-0.7126,0,-0.7152,-0.7163,-0.7182,-0.7182,-0.7174,-0.7184,-0.7181,-0.7177,-0.7181,-0.7184,-0.7186,-0.7191,-0.7193,-0.7197,-0.7184,-0.7167,-0.7206,-0.718,-0.7202,-0.7202,-0.7211,-0.7211,-0.7282,-0.7214,-0.7214,-0.7214,-0.7214,0,-0.7207,-0.7226,-0.7205,-0.7216,-0.7237,-0.7219,-0.7239,-0.7234,-0.7231,-0.7241,-0.7221,-0.7231,-0.7212,-0.7221,-0.721,-0.7229,-0.723,-0.7226,-0.7223,-0.7227,-0.7228,-0.723,-0.7226,-0.7215,-0.7215,-0.7215,-0.7214,0,-0.7267,-0.7254,-0.7273,-0.7263,-0.7261,-0.7277,-0.7269,-0.7279,-0.727,-0.7284,-0.7286,-0.7272,-0.7281,-0.7268,-0.7275,-0.7268,-0.7294,-0.7286,-0.7295,-0.7292,-0.7315,-0.7313,-0.7389,-0.7398,-0.7325,-0.7326,-0.7326,0,-0.7303,-0.7317,-0.7308,-0.7313,-0.7311,-0.732,-0.7324,-0.7306,-0.7311,-0.7309,-0.732,-0.7327,-0.7331,-0.7347,-0.7338,-0.7343,-0.7336,-0.7362,-0.7336,-0.7341,-0.7336,-0.7335,-0.7336,-0.7367,-0.7368,-0.7369,-0.737,0,-0.7367,-0.736,-0.7365,-0.7369,-0.7373,-0.7375,-0.7376,-0.7381,-0.7363,-0.7369,-0.7378,-0.7381,-0.7388,-0.7396,-0.7399,-0.7396,-0.738,-0.7378,-0.7383,-0.7388,-0.7392,-0.739,-0.7309,-0.7376,-0.7375,-0.7375,-0.7375,-0.7374,-0.7416,-0.7427,-0.7423,-0.743,-0.7428,-0.7429,-0.7438,-0.743,-0.7437,-0.7441,-0.7431,-0.7441,-0.7439,-0.7441,-0.744,-0.7449,-0.7437,-0.7445,-0.7447,-0.7449,-0.7452,-0.7391,-0.7449,-0.7449,-0.7449,-0.7449,-0.7449,0,-0.7479,-0.7475,-0.7482,-0.7483,-0.7488,-0.7472,-0.7471,-0.7477,-0.7487,-0.7485,-0.749,-0.75,-0.7506,-0.7498,-0.7503,-0.7512,-0.7504,-0.7513,-0.7513,-0.7512,-0.7462,-0.7457,-0.7519,-0.7519,-0.7519,-0.7519,-0.7519,-0.7519,-0.7513,-0.753,-0.7523,-0.7539,-0.7535,-0.7545,-0.7546,-0.7547,-0.7545,-0.7557,-0.7562,-0.7556,-0.7552,-0.7557,-0.7562,-0.756,-0.7562,-0.7574,-0.7569,-0.7523,-0.7516,-0.7509,-0.7504,-0.7575,-0.7575,-0.7618,-0.7618,-0.7619]},{"header":{"parameterUnit":"m.s-1","parameterCategory":1,"la1":30.2991,"la2":30.254,"lo1":-89.0895,"lo2":-89.0444,"dy":0.0017,"dx":0.0017,"nx":28,"ny":28,"refTime":"2024-04-30T21:00:00:Z","depth":0,"parameterNumber":3,"parameterNumberName":"V-component_of_WINDS"},"data":[0,0,0,0,0,0,0,0,0,0,0,0,0,0,0,0,0,0,0,0,0,0,0,0,0,0,0,0,0,0,0,0,0,0,0,0,0,0,0,0,0,0,0,0,0,0,0,0,0,0,0,0,0,0,0,0,0,0,-0.1832,-0.1832,0,-0.182,-0.182,-0.182,-0.1798,-0.1798,-0.1797,-0.1797,-0.1785,-0.1785,-0.1785,0,0,0,0,0,0,0,0,0,0,0,0,0,-0.1836,-0.1836,-0.1832,-0.1832,-0.1832,-0.182,-0.182,-0.182,-0.1798,-0.1798,-0.1797,-0.1797,-0.1785,-0.1785,-0.1785,0,0,0,0,0,0,0,0,0,0,0,0,0,-0.183,-0.1836,-0.1832,-0.182,-0.1819,-0.182,-0.182,-0.1819,-0.1798,-0.1798,-0.1797,-0.1797,-0.1785,-0.1785,-0.1785,-0.1797,0,0,-0.1785,-0.1785,0,0,0,0,0,0,0,0,-0.1831,-0.183,-0.1822,-0.1821,-0.1819,-0.181,-0.1817,-0.1812,-0.1799,-0.1806,-0.1797,-0.1796,-0.1794,-0.1793,-0.1792,-0.1797,-0.1796,-0.1785,-0.1785,-0.1785,-0.1785,0,0,0,0,0,0,0,-0.1831,-0.1831,-0.1827,-0.1822,-0.182,-0.1815,-0.1813,-0.1816,-0.1803,-0.1805,-0.1804,-0.1803,-0.1793,-0.1792,-0.1791,-0.1796,-0.1785,-0.1785,-0.1785,-0.1785,-0.1808,-0.1809,0,0,0,0,0,0,-0.1833,-0.1831,-0.1828,-0.1827,-0.1824,-0.1815,-0.1813,-0.1814,-0.1803,-0.1801,-0.1803,-0.1802,-0.1792,-0.1791,-0.1791,-0.1804,-0.1785,-0.1785,-0.1785,-0.1808,-0.1809,-0.1809,0,0,0,0,0,0,-0.1834,-0.1833,-0.1828,-0.1829,-0.1827,-0.1816,-0.1816,-0.1814,-0.1813,-0.1802,-0.1799,-0.1805,-0.1792,-0.1791,-0.1795,-0.1803,-0.1785,-0.1785,-0.1807,-0.1808,-0.1809,-0.183,0,0,0,0,0,0,-0.1834,-0.1834,-0.1838,-0.1829,-0.1828,-0.1833,-0.1817,-0.1814,-0.1813,-0.1811,-0.1802,-0.18,-0.1791,-0.1795,-0.1795,-0.1803,-0.1785,-0.1806,-0.1808,-0.1809,-0.1828,-0.1831,-0.1834,0,0,0,0,0,-0.1834,-0.1845,-0.1839,-0.1839,-0.1833,-0.1834,-0.1833,-0.1822,-0.1814,-0.1818,-0.1811,-0.1801,-0.1802,-0.1796,-0.1796,-0.1803,-0.1806,-0.1807,-0.1808,-0.1827,-0.1831,-0.1834,0,0,0,0,0,0,-0.1857,-0.1844,-0.1837,-0.1845,-0.1841,-0.183,-0.1836,-0.1826,-0.1824,-0.1822,-0.1809,-0.1807,-0.1813,-0.1809,-0.1802,-0.1814,-0.1802,-0.1804,-0.1817,-0.182,-0.1823,-0.1823,-0.1785,0,0,0,0,0,-0.1862,-0.1864,-0.1853,-0.1861,-0.1859,-0.1848,-0.1848,-0.1839,-0.1834,-0.1832,-0.1825,-0.1821,-0.182,-0.182,-0.1819,-0.1828,-0.1825,-0.1833,-0.1835,-0.1838,-0.1839,-0.1842,-0.1845,-0.1813,-0.1813,-0.1813,0,0,-0.1875,-0.1868,-0.187,-0.1865,-0.1861,-0.1862,-0.1846,-0.1849,-0.1849,-0.1833,-0.1836,-0.1831,-0.1825,-0.1831,-0.1834,-0.1828,-0.1847,-0.1839,-0.1841,-0.1841,-0.1844,-0.1846,-0.1849,-0.1814,-0.1814,-0.1814,0,0,-0.1897,-0.1893,-0.1899,-0.1894,-0.1888,-0.188,-0.1881,-0.1872,-0.1867,-0.1871,-0.1858,-0.1858,-0.1858,-0.1853,-0.1851,-0.1871,-0.1861,-0.1871,-0.1885,-0.1888,-0.189,-0.1892,-0.1898,-0.1901,-0.1872,-0.1872,-0.1872,0,-0.1914,-0.1915,-0.1903,-0.1906,-0.1904,-0.1888,-0.1893,-0.189,-0.1883,-0.1882,-0.1875,-0.1873,-0.1868,-0.1873,-0.1877,-0.1876,-0.1877,-0.1872,-0.1891,-0.1893,-0.1895,-0.19,-0.1903,-0.1873,-0.1873,-0.1873,-0.1873,0,-0.1934,-0.1936,-0.1941,-0.1934,-0.1933,-0.1937,-0.1925,-0.1925,-0.1917,-0.191,-0.1913,-0.1906,-0.1902,-0.1903,-0.1895,-0.1906,-0.1902,-0.1894,-0.1881,-0.1899,-0.1904,-0.1906,-0.1875,-0.1875,-0.1874,-0.1874,0,0,-0.1972,-0.1957,-0.1959,-0.1955,-0.1946,-0.1947,-0.195,-0.1946,-0.1946,-0.1942,-0.1943,-0.1942,-0.1934,-0.1931,-0.1923,-0.1926,-0.194,-0.1916,-0.1916,-0.192,-0.195,-0.1956,-0.1959,-0.1933,-0.1934,-0.1934,-0.195,0,-0.1992,-0.1996,-0.1984,-0.1991,-0.1992,-0.1976,-0.1979,-0.1973,-0.1966,-0.1965,-0.1957,-0.1956,-0.1946,-0.1944,-0.1946,-0.1938,-0.1946,-0.1937,-0.1934,-0.1934,-0.1935,-0.1962,-0.1968,-0.1984,-0.1952,-0.1953,-0.1953,0,-0.2016,-0.2012,-0.2019,-0.2008,-0.2008,-0.201,-0.2005,-0.2004,-0.1997,-0.1992,-0.1988,-0.1978,-0.1979,-0.1968,-0.1969,-0.1963,-0.1962,-0.1957,-0.1958,-0.1957,-0.1944,-0.196,-0.1989,-0.1991,-0.1956,-0.1956,-0.1955,0,-0.2041,-0.2037,-0.2041,-0.2038,-0.2026,-0.2027,-0.2022,-0.2015,-0.2013,-0.2008,-0.2007,-0.2003,-0.2,-0.1997,-0.1986,-0.1979,-0.1988,-0.1976,-0.1983,-0.1983,-0.1985,-0.1985,-0.2013,-0.1985,-0.1985,-0.1985,-0.1985,0,-0.2064,-0.2069,-0.2051,-0.2053,-0.2057,-0.2044,-0.2049,-0.2042,-0.2035,-0.2035,-0.2022,-0.2022,-0.2007,-0.2006,-0.1997,-0.1998,-0.1998,-0.1993,-0.199,-0.1994,-0.1994,-0.1992,-0.199,-0.1986,-0.1986,-0.1986,-0.1986,0,-0.2093,-0.2081,-0.2084,-0.2072,-0.2069,-0.2072,-0.2061,-0.2062,-0.2054,-0.2054,-0.2053,-0.204,-0.2038,-0.2026,-0.2021,-0.2015,-0.2019,-0.2015,-0.2021,-0.202,-0.2027,-0.2026,-0.2054,-0.2056,-0.2028,-0.2028,-0.2028,0,-0.2108,-0.2111,-0.2099,-0.2097,-0.2093,-0.2091,-0.2089,-0.2076,-0.2074,-0.2065,-0.2067,-0.2063,-0.2059,-0.2055,-0.2045,-0.2041,-0.2036,-0.2046,-0.2035,-0.2038,-0.2034,-0.2034,-0.2034,-0.2048,-0.2048,-0.2048,-0.2049,0,-0.2136,-0.213,-0.2127,-0.2122,-0.2119,-0.2114,-0.2109,-0.2109,-0.2094,-0.2092,-0.2089,-0.2086,-0.208,-0.2076,-0.2069,-0.2064,-0.2053,-0.2052,-0.2053,-0.2056,-0.206,-0.2057,-0.2027,-0.2051,-0.2051,-0.2051,-0.2051,-0.2051,-0.2157,-0.2159,-0.215,-0.2147,-0.2141,-0.2136,-0.2136,-0.2127,-0.2124,-0.2118,-0.2111,-0.2108,-0.21,-0.209,-0.2085,-0.2082,-0.2077,-0.2079,-0.2079,-0.208,-0.2081,-0.2061,-0.2081,-0.2081,-0.2081,-0.2081,-0.2081,0,-0.2184,-0.2177,-0.2174,-0.2167,-0.2164,-0.2154,-0.2147,-0.2146,-0.2143,-0.2136,-0.2133,-0.2128,-0.2124,-0.2113,-0.2108,-0.2108,-0.2103,-0.2107,-0.2106,-0.2105,-0.2087,-0.2086,-0.2111,-0.2111,-0.2111,-0.2111,-0.2111,-0.2111,-0.2197,-0.2198,-0.2191,-0.2189,-0.2182,-0.2179,-0.2176,-0.2171,-0.2165,-0.2161,-0.2157,-0.215,-0.2141,-0.2135,-0.213,-0.2127,-0.2125,-0.2131,-0.2126,-0.2109,-0.2106,-0.2104,-0.2103,-0.2131,-0.2131,-0.2144,-0.2144,-0.2144]}]]